| time (UTC) | temp F | wind direction | speed MPH | gust MPH | rain 1hr in | rain 24hr in | rain mn in | humidity % | barometer mb |
| 20260510091210 | 68 | 43 | 0.0 | 2.0 | 0.00 | 0.00 | 0.00 | 64 | 1014.8 |
| 20260510090607 | 67 | 43 | 0.0 | 0.0 | 0.00 | 0.00 | 0.00 | 66 | 1014.9 |
| 20260510085409 | 67 | 47 | 1.0 | 2.0 | 0.00 | 0.00 | 0.00 | 66 | 1014.8 |
| 20260510084807 | 66 | 64 | 3.0 | 4.0 | 0.00 | 0.00 | 0.00 | 67 | 1014.7 |
| 20260510084208 | 66 | 65 | 2.0 | 4.0 | 0.00 | 0.00 | 0.00 | 67 | 1014.7 |
| 20260510083607 | 66 | 61 | 3.0 | 5.0 | 0.00 | 0.00 | 0.00 | 67 | 1014.8 |
| 20260510083007 | 67 | 79 | 2.0 | 3.0 | 0.00 | 0.00 | 0.00 | 67 | 1014.7 |
| 20260510082407 | 66 | 72 | 2.0 | 3.0 | 0.00 | 0.00 | 0.00 | 67 | 1014.7 |
| 20260510081809 | 66 | 69 | 2.0 | 2.0 | 0.00 | 0.00 | 0.00 | 68 | 1014.7 |
| 20260510081207 | 65 | 71 | 2.0 | 3.0 | 0.00 | 0.00 | 0.00 | 69 | 1014.7 |
| 20260510080607 | 66 | 66 | 2.0 | 4.0 | 0.00 | 0.00 | 0.00 | 69 | 1014.7 |
| 20260510075409 | 65 | 65 | 1.0 | 2.0 | 0.00 | 0.00 | 0.00 | 69 | 1014.7 |
| 20260510074807 | 64 | 61 | 2.0 | 5.0 | 0.00 | 0.00 | 0.00 | 70 | 1014.9 |
| 20260510074207 | 64 | 49 | 2.0 | 4.0 | 0.00 | 0.00 | 0.00 | 69 | 1014.8 |
| 20260510073609 | 64 | 61 | 3.0 | 5.0 | 0.00 | 0.00 | 0.00 | 70 | 1014.9 |
| 20260510073008 | 64 | 68 | 3.0 | 4.0 | 0.00 | 0.00 | 0.00 | 70 | 1014.9 |
| 20260510072407 | 64 | 79 | 2.0 | 4.0 | 0.00 | 0.00 | 0.00 | 70 | 1014.9 |
| 20260510071809 | 64 | 87 | 3.0 | 4.0 | 0.00 | 0.00 | 0.00 | 70 | 1014.9 |
| 20260510070607 | 63 | 68 | 2.0 | 4.0 | 0.00 | 0.00 | 0.00 | 71 | 1014.7 |
| 20260510065407 | 62 | 63 | 3.0 | 4.0 | 0.00 | 0.00 | 0.00 | 73 | 1014.8 |
| 20260510064807 | 62 | 72 | 3.0 | 5.0 | 0.00 | 0.00 | 0.00 | 73 | 1014.8 |
| 20260510064207 | 62 | 90 | 3.0 | 5.0 | 0.00 | 0.00 | 0.00 | 73 | 1014.9 |
| 20260510063607 | 61 | 70 | 2.0 | 5.0 | 0.00 | 0.00 | 0.00 | 73 | 1014.9 |
| 20260510063008 | 61 | 70 | 4.0 | 5.0 | 0.00 | 0.00 | 0.00 | 72 | 1014.9 |
| 20260510062410 | 61 | 69 | 4.0 | 5.0 | 0.00 | 0.00 | 0.00 | 73 | 1014.9 |
| 20260510061809 | 61 | 62 | 4.0 | 5.0 | 0.00 | 0.00 | 0.00 | 73 | 1015.0 |
| 20260510061207 | 61 | 65 | 4.0 | 7.0 | 0.00 | 0.00 | 0.00 | 74 | 1014.8 |
| 20260510060607 | 61 | 65 | 5.0 | 6.0 | 0.00 | 0.00 | 0.00 | 75 | 1014.7 |
| 20260510055408 | 60 | 76 | 3.0 | 4.0 | 0.00 | 0.00 | 0.00 | 76 | 1014.8 |
| 20260510054807 | 60 | 74 | 3.0 | 4.0 | 0.00 | 0.00 | 0.00 | 77 | 1014.8 |
| 20260510053609 | 59 | 67 | 4.0 | 6.0 | 0.00 | 0.00 | 0.00 | 78 | 1014.7 |
| 20260510053007 | 59 | 69 | 5.0 | 7.0 | 0.00 | 0.00 | 0.00 | 79 | 1014.5 |
| 20260510052407 | 59 | 65 | 4.0 | 7.0 | 0.00 | 0.00 | 0.00 | 79 | 1014.6 |
| 20260510051807 | 59 | 67 | 5.0 | 6.0 | 0.00 | 0.00 | 0.00 | 79 | 1014.6 |
| 20260510050608 | 59 | 77 | 3.0 | 5.0 | 0.00 | 0.00 | 0.00 | 79 | 1014.8 |
| 20260510045407 | 59 | 72 | 4.0 | 5.0 | 0.00 | 0.00 | 0.00 | 79 | 1014.8 |
| 20260510044808 | 59 | 66 | 2.0 | 4.0 | 0.00 | 0.00 | 0.00 | 80 | 1014.8 |
| 20260510043608 | 59 | 64 | 4.0 | 6.0 | 0.00 | 0.00 | 0.00 | 81 | 1014.8 |
| 20260510043009 | 59 | 64 | 3.0 | 5.0 | 0.00 | 0.00 | 0.00 | 81 | 1014.7 |
| 20260510042407 | 59 | 65 | 3.0 | 4.0 | 0.00 | 0.00 | 0.00 | 81 | 1014.9 |
| 20260510041809 | 59 | 70 | 4.0 | 6.0 | 0.00 | 0.00 | 0.00 | 81 | 1014.9 |
| 20260510040609 | 59 | 69 | 4.0 | 5.0 | 0.00 | 0.00 | 0.00 | 81 | 1015.0 |
| 20260510035407 | 58 | 69 | 3.0 | 4.0 | 0.00 | 0.00 | 0.00 | 81 | 1015.0 |
| 20260510034809 | 59 | 68 | 3.0 | 5.0 | 0.00 | 0.00 | 0.00 | 82 | 1015.0 |
| 20260510033607 | 59 | 69 | 2.0 | 5.0 | 0.00 | 0.00 | 0.00 | 81 | 1015.1 |
| 20260510033007 | 59 | 72 | 2.0 | 4.0 | 0.00 | 0.00 | 0.00 | 81 | 1015.2 |
| 20260510032407 | 59 | 71 | 3.0 | 4.0 | 0.00 | 0.00 | 0.00 | 81 | 1015.2 |
| 20260510031810 | 59 | 73 | 3.0 | 4.0 | 0.00 | 0.00 | 0.00 | 82 | 1015.2 |
| 20260510030607 | 59 | 77 | 3.0 | 4.0 | 0.00 | 0.00 | 0.00 | 82 | 1015.3 |
| 20260510025407 | 59 | 66 | 2.0 | 3.0 | 0.00 | 0.00 | 0.00 | 83 | 1015.4 |
| 20260510024807 | 59 | 63 | 2.0 | 2.0 | 0.00 | 0.00 | 0.00 | 83 | 1015.4 |
| 20260510023608 | 59 | 60 | 0.0 | 0.0 | 0.00 | 0.00 | 0.00 | 85 | 1015.5 |
| 20260510023008 | 59 | 60 | 0.0 | 0.0 | 0.00 | 0.00 | 0.00 | 84 | 1015.4 |
| 20260510022407 | 59 | 59 | 0.0 | 1.0 | 0.00 | 0.00 | 0.00 | 85 | 1015.5 |
| 20260510021810 | 58 | 59 | 0.0 | 1.0 | 0.00 | 0.00 | 0.00 | 86 | 1015.5 |
| 20260510020607 | 58 | 59 | 0.0 | 0.0 | 0.00 | 0.00 | 0.00 | 86 | 1015.5 |
| 20260510015407 | 59 | 59 | 0.0 | 0.0 | 0.00 | 0.00 | 0.00 | 85 | 1015.7 |
| 20260510014807 | 59 | 59 | 0.0 | 0.0 | 0.00 | 0.00 | 0.00 | 84 | 1015.7 |
| 20260510013607 | 60 | 59 | 0.0 | 0.0 | 0.00 | 0.00 | 0.00 | 83 | 1015.7 |
| 20260510013009 | 60 | 59 | 0.0 | 0.0 | 0.00 | 0.00 | 0.00 | 83 | 1015.7 |
| 20260510012409 | 60 | 59 | 0.0 | 0.0 | 0.00 | 0.00 | 0.00 | 83 | 1015.7 |
| 20260510011809 | 60 | 59 | 1.0 | 2.0 | 0.00 | 0.00 | 0.00 | 82 | 1015.8 |
| 20260510010607 | 61 | 59 | 1.0 | 2.0 | 0.00 | 0.00 | 0.00 | 82 | 1015.8 |
| 20260510005407 | 61 | 59 | 0.0 | 0.0 | 0.00 | 0.00 | 0.00 | 82 | 1015.8 |
| 20260510004808 | 61 | 59 | 0.0 | 0.0 | 0.00 | 0.00 | 0.00 | 82 | 1015.9 |
| 20260510003609 | 61 | 59 | 0.0 | 0.0 | 0.00 | 0.00 | 0.00 | 81 | 1016.0 |
| 20260510003009 | 61 | 59 | 0.0 | 0.0 | 0.00 | 0.00 | 0.00 | 81 | 1016.0 |
| 20260510002407 | 61 | 59 | 1.0 | 2.0 | 0.00 | 0.00 | 0.00 | 81 | 1016.0 |
| 20260510001807 | 61 | 59 | 2.0 | 2.0 | 0.00 | 0.00 | 0.00 | 80 | 1016.1 |
| 20260510001208 | 61 | 56 | 0.0 | 0.0 | 0.00 | 0.00 | 0.00 | 81 | 1016.0 |
| 20260510000610 | 61 | 57 | 0.0 | 0.0 | 0.00 | 0.00 | 0.00 | 81 | 1016.1 |
| 20260509235407 | 61 | 55 | 0.0 | 0.0 | 0.00 | 0.00 | 0.00 | 81 | 1016.3 |
| 20260509234809 | 61 | 57 | 0.0 | 0.0 | 0.00 | 0.00 | 0.00 | 81 | 1016.3 |
| 20260509234210 | 61 | 54 | 1.0 | 2.0 | 0.00 | 0.00 | 0.00 | 81 | 1016.3 |
| 20260509233607 | 61 | 44 | 2.0 | 2.0 | 0.00 | 0.00 | 0.00 | 81 | 1016.2 |
| 20260509233009 | 61 | 30 | 1.0 | 1.0 | 0.00 | 0.00 | 0.00 | 81 | 1016.3 |
| 20260509232407 | 61 | 71 | 1.0 | 2.0 | 0.00 | 0.00 | 0.00 | 81 | 1016.3 |
| 20260509231807 | 61 | 76 | 0.0 | 2.0 | 0.00 | 0.00 | 0.00 | 81 | 1016.3 |
| 20260509231208 | 62 | 76 | 0.0 | 0.0 | 0.00 | 0.00 | 0.00 | 81 | 1016.3 |
| 20260509230607 | 62 | 76 | 0.0 | 0.0 | 0.00 | 0.00 | 0.00 | 81 | 1016.3 |
| 20260509225410 | 62 | 76 | 0.0 | 0.0 | 0.00 | 0.00 | 0.00 | 81 | 1016.2 |
| 20260509224809 | 62 | 77 | 0.0 | 0.0 | 0.00 | 0.00 | 0.00 | 80 | 1016.3 |
| 20260509224207 | 62 | 77 | 0.0 | 0.0 | 0.00 | 0.00 | 0.00 | 79 | 1016.2 |
| 20260509223607 | 62 | 77 | 0.0 | 0.0 | 0.00 | 0.00 | 0.00 | 80 | 1016.3 |
| 20260509223010 | 62 | 77 | 0.0 | 0.0 | 0.00 | 0.00 | 0.00 | 79 | 1016.4 |
| 20260509222409 | 62 | 77 | 0.0 | 0.0 | 0.00 | 0.00 | 0.00 | 79 | 1016.4 |
| 20260509221807 | 62 | 76 | 0.0 | 0.0 | 0.00 | 0.00 | 0.00 | 78 | 1016.4 |
| 20260509221207 | 63 | 77 | 0.0 | 0.0 | 0.00 | 0.00 | 0.00 | 78 | 1016.4 |
| 20260509220607 | 64 | 77 | 0.0 | 0.0 | 0.00 | 0.00 | 0.00 | 77 | 1016.4 |
| 20260509215407 | 64 | 77 | 0.0 | 0.0 | 0.00 | 0.00 | 0.00 | 77 | 1016.5 |
| 20260509214810 | 64 | 77 | 0.0 | 0.0 | 0.00 | 0.00 | 0.00 | 76 | 1016.4 |
| 20260509214208 | 64 | 77 | 0.0 | 2.0 | 0.00 | 0.00 | 0.00 | 75 | 1016.2 |
| 20260509213610 | 64 | 77 | 0.0 | 0.0 | 0.00 | 0.00 | 0.00 | 75 | 1016.2 |
| 20260509213008 | 64 | 77 | 0.0 | 0.0 | 0.00 | 0.00 | 0.00 | 74 | 1016.2 |
| 20260509212408 | 64 | 77 | 0.0 | 1.0 | 0.00 | 0.00 | 0.00 | 74 | 1016.2 |
| 20260509211809 | 64 | 77 | 0.0 | 0.0 | 0.00 | 0.00 | 0.00 | 75 | 1016.2 |
| 20260509211208 | 64 | 77 | 0.0 | 0.0 | 0.00 | 0.00 | 0.00 | 74 | 1016.2 |
| 20260509210607 | 64 | 77 | 0.0 | 0.0 | 0.00 | 0.00 | 0.00 | 73 | 1016.2 |
| 20260509205407 | 65 | 77 | 0.0 | 0.0 | 0.00 | 0.00 | 0.00 | 71 | 1016.3 |
| 20260509204808 | 66 | 67 | 2.0 | 3.0 | 0.00 | 0.00 | 0.00 | 71 | 1016.2 |
| 20260509204208 | 66 | 77 | 3.0 | 4.0 | 0.00 | 0.00 | 0.00 | 70 | 1016.3 |
| 20260509203610 | 66 | 71 | 3.0 | 4.0 | 0.00 | 0.00 | 0.00 | 70 | 1016.3 |
| 20260509203007 | 65 | 76 | 4.0 | 5.0 | 0.00 | 0.00 | 0.00 | 70 | 1016.2 |
| 20260509202408 | 65 | 66 | 2.0 | 3.0 | 0.00 | 0.00 | 0.00 | 70 | 1016.1 |
| 20260509201810 | 65 | 67 | 3.0 | 4.0 | 0.00 | 0.00 | 0.00 | 69 | 1016.2 |
| 20260509201207 | 65 | 52 | 0.0 | 1.0 | 0.00 | 0.00 | 0.00 | 69 | 1016.1 |
| 20260509200608 | 66 | 17 | 2.0 | 3.0 | 0.00 | 0.00 | 0.00 | 68 | 1016.2 |
| 20260509195408 | 66 | 83 | 2.0 | 3.0 | 0.00 | 0.00 | 0.00 | 66 | 1016.2 |
| 20260509194807 | 66 | 76 | 2.0 | 3.0 | 0.00 | 0.00 | 0.00 | 65 | 1016.0 |
| 20260509194207 | 66 | 38 | 3.0 | 5.0 | 0.00 | 0.00 | 0.00 | 64 | 1016.0 |
| 20260509193610 | 67 | 77 | 3.0 | 4.0 | 0.00 | 0.00 | 0.00 | 61 | 1015.9 |
| 20260509193009 | 67 | 84 | 0.0 | 1.0 | 0.00 | 0.00 | 0.00 | 61 | 1015.6 |
| 20260509192407 | 67 | 78 | 0.0 | 0.0 | 0.00 | 0.00 | 0.00 | 60 | 1015.5 |
| 20260509191807 | 67 | 78 | 0.0 | 0.0 | 0.00 | 0.00 | 0.00 | 59 | 1015.5 |
| 20260509191210 | 68 | 78 | 0.0 | 1.0 | 0.00 | 0.00 | 0.00 | 58 | 1015.4 |
| 20260509190607 | 68 | 78 | 1.0 | 2.0 | 0.00 | 0.00 | 0.00 | 58 | 1015.4 |
| 20260509185408 | 68 | 69 | 0.0 | 0.0 | 0.00 | 0.00 | 0.00 | 57 | 1015.1 |
| 20260509184807 | 68 | 71 | 1.0 | 3.0 | 0.00 | 0.00 | 0.00 | 56 | 1015.2 |
| 20260509184207 | 68 | 63 | 1.0 | 4.0 | 0.00 | 0.00 | 0.00 | 56 | 1015.1 |
| 20260509183606 | 69 | 214 | 2.0 | 4.0 | 0.00 | 0.00 | 0.00 | 57 | 1015.1 |
| 20260509183006 | 69 | 77 | 1.0 | 2.0 | 0.00 | 0.00 | 0.00 | 57 | 1015.0 |
| 20260509182407 | 69 | 114 | 1.0 | 2.0 | 0.00 | 0.00 | 0.00 | 58 | 1015.0 |
| 20260509181806 | 69 | 100 | 0.0 | 2.0 | 0.00 | 0.00 | 0.00 | 58 | 1015.0 |
| 20260509181209 | 69 | 96 | 2.0 | 3.0 | 0.00 | 0.00 | 0.00 | 56 | 1015.0 |
| 20260509180609 | 70 | 79 | 1.0 | 2.0 | 0.00 | 0.00 | 0.00 | 56 | 1015.0 |
| 20260509175407 | 70 | 44 | 0.0 | 1.0 | 0.00 | 0.00 | 0.00 | 57 | 1015.1 |
| 20260509174807 | 71 | 108 | 2.0 | 4.0 | 0.00 | 0.00 | 0.00 | 57 | 1015.1 |
| 20260509174207 | 71 | 72 | 2.0 | 5.0 | 0.00 | 0.00 | 0.00 | 57 | 1015.1 |
| 20260509173608 | 71 | 130 | 2.0 | 3.0 | 0.00 | 0.00 | 0.00 | 57 | 1015.0 |
| 20260509173007 | 71 | 78 | 3.0 | 4.0 | 0.00 | 0.00 | 0.00 | 56 | 1015.1 |
| 20260509172410 | 72 | 40 | 2.0 | 3.0 | 0.00 | 0.00 | 0.00 | 56 | 1015.1 |
| 20260509171807 | 72 | 100 | 2.0 | 3.0 | 0.00 | 0.00 | 0.00 | 56 | 1015.0 |
| 20260509171206 | 73 | 111 | 2.0 | 3.0 | 0.00 | 0.00 | 0.00 | 56 | 1014.9 |
| 20260509170608 | 73 | 119 | 2.0 | 3.0 | 0.00 | 0.00 | 0.00 | 56 | 1014.9 |
| 20260509165409 | 73 | 122 | 3.0 | 4.0 | 0.00 | 0.00 | 0.00 | 56 | 1014.8 |
| 20260509164808 | 73 | 104 | 3.0 | 4.0 | 0.00 | 0.00 | 0.00 | 57 | 1014.8 |
| 20260509164210 | 74 | 108 | 3.0 | 6.0 | 0.00 | 0.00 | 0.00 | 57 | 1014.8 |
| 20260509163607 | 74 | 123 | 2.0 | 3.0 | 0.00 | 0.00 | 0.00 | 56 | 1014.9 |
| 20260509163008 | 74 | 87 | 3.0 | 6.0 | 0.00 | 0.00 | 0.00 | 56 | 1015.0 |
| 20260509162409 | 75 | 87 | 2.0 | 4.0 | 0.00 | 0.00 | 0.00 | 56 | 1015.0 |
| 20260509161810 | 76 | 68 | 2.0 | 2.0 | 0.00 | 0.00 | 0.00 | 56 | 1015.1 |
| 20260509161208 | 75 | 107 | 3.0 | 5.0 | 0.00 | 0.00 | 0.00 | 56 | 1015.1 |
| 20260509160607 | 76 | 107 | 3.0 | 5.0 | 0.00 | 0.00 | 0.00 | 56 | 1015.1 |
| 20260509155412 | 76 | 121 | 2.0 | 4.0 | 0.00 | 0.00 | 0.00 | 55 | 1015.0 |
| 20260509154806 | 76 | 113 | 2.0 | 4.0 | 0.00 | 0.00 | 0.00 | 56 | 1015.0 |
| 20260509154207 | 76 | 101 | 2.0 | 4.0 | 0.00 | 0.00 | 0.00 | 55 | 1015.0 |
| 20260509153608 | 76 | 110 | 3.0 | 4.0 | 0.00 | 0.00 | 0.00 | 55 | 1015.0 |
| 20260509153010 | 77 | 87 | 3.0 | 4.0 | 0.00 | 0.00 | 0.00 | 55 | 1015.0 |
| 20260509152409 | 77 | 120 | 2.0 | 3.0 | 0.00 | 0.00 | 0.00 | 54 | 1015.0 |
| 20260509151807 | 76 | 97 | 3.0 | 4.0 | 0.00 | 0.00 | 0.00 | 55 | 1015.0 |
| 20260509151207 | 76 | 86 | 3.0 | 5.0 | 0.00 | 0.00 | 0.00 | 56 | 1015.1 |
| 20260509150608 | 77 | 148 | 2.0 | 5.0 | 0.00 | 0.00 | 0.00 | 54 | 1015.2 |
| 20260509145410 | 75 | 103 | 3.0 | 5.0 | 0.00 | 0.00 | 0.00 | 56 | 1015.3 |
| 20260509144807 | 76 | 108 | 2.0 | 4.0 | 0.00 | 0.00 | 0.00 | 56 | 1015.2 |
| 20260509144207 | 77 | 119 | 3.0 | 5.0 | 0.00 | 0.00 | 0.00 | 56 | 1015.3 |
| 20260509143607 | 77 | 133 | 3.0 | 6.0 | 0.00 | 0.00 | 0.00 | 56 | 1015.3 |
| 20260509143007 | 77 | 107 | 3.0 | 4.0 | 0.00 | 0.00 | 0.00 | 56 | 1015.2 |
| 20260509142410 | 77 | 123 | 3.0 | 6.0 | 0.00 | 0.00 | 0.00 | 57 | 1015.4 |
| 20260509141807 | 77 | 104 | 4.0 | 6.0 | 0.00 | 0.00 | 0.00 | 56 | 1015.4 |
| 20260509141209 | 78 | 143 | 2.0 | 4.0 | 0.00 | 0.00 | 0.00 | 55 | 1015.5 |
| 20260509140607 | 77 | 136 | 3.0 | 4.0 | 0.00 | 0.00 | 0.00 | 56 | 1015.4 |
| 20260509135407 | 77 | 85 | 3.0 | 8.0 | 0.00 | 0.00 | 0.00 | 56 | 1015.5 |
| 20260509134808 | 77 | 142 | 3.0 | 4.0 | 0.00 | 0.00 | 0.00 | 55 | 1015.5 |
| 20260509134207 | 77 | 101 | 1.0 | 3.0 | 0.00 | 0.00 | 0.00 | 53 | 1015.5 |
| 20260509133607 | 77 | 105 | 3.0 | 4.0 | 0.00 | 0.00 | 0.00 | 55 | 1015.6 |
| 20260509133007 | 77 | 136 | 2.0 | 5.0 | 0.00 | 0.00 | 0.00 | 56 | 1015.7 |
| 20260509132409 | 78 | 146 | 3.0 | 5.0 | 0.00 | 0.00 | 0.00 | 52 | 1015.7 |
| 20260509131807 | 78 | 72 | 3.0 | 4.0 | 0.00 | 0.00 | 0.00 | 54 | 1015.8 |
| 20260509131207 | 78 | 107 | 5.0 | 8.0 | 0.00 | 0.00 | 0.00 | 50 | 1015.7 |
| 20260509130607 | 78 | 97 | 2.0 | 3.0 | 0.00 | 0.00 | 0.00 | 52 | 1015.7 |
| 20260509125411 | 77 | 232 | 1.0 | 2.0 | 0.00 | 0.00 | 0.00 | 46 | 1015.7 |
| 20260509124807 | 78 | 162 | 3.0 | 5.0 | 0.00 | 0.00 | 0.00 | 43 | 1015.8 |
| 20260509124207 | 77 | 96 | 2.0 | 3.0 | 0.00 | 0.00 | 0.00 | 44 | 1015.7 |
| 20260509123607 | 79 | 139 | 3.0 | 5.0 | 0.00 | 0.00 | 0.00 | 44 | 1015.8 |
| 20260509123009 | 78 | 290 | 2.0 | 4.0 | 0.00 | 0.00 | 0.00 | 43 | 1015.9 |
| 20260509122407 | 77 | 53 | 2.0 | 3.0 | 0.00 | 0.00 | 0.00 | 46 | 1015.9 |
| 20260509121809 | 78 | 229 | 2.0 | 3.0 | 0.00 | 0.00 | 0.00 | 45 | 1016.0 |
| 20260509121208 | 77 | 230 | 3.0 | 5.0 | 0.00 | 0.00 | 0.00 | 46 | 1016.0 |
| 20260509120607 | 77 | 227 | 3.0 | 6.0 | 0.00 | 0.00 | 0.00 | 46 | 1016.1 |
| 20260509115409 | 76 | 55 | 1.0 | 2.0 | 0.00 | 0.00 | 0.00 | 47 | 1016.2 |
| 20260509114807 | 75 | 46 | 2.0 | 3.0 | 0.00 | 0.00 | 0.00 | 47 | 1016.2 |
| 20260509114209 | 76 | 51 | 3.0 | 5.0 | 0.00 | 0.00 | 0.00 | 50 | 1016.4 |
| 20260509113607 | 78 | 139 | 0.0 | 2.0 | 0.00 | 0.00 | 0.00 | 45 | 1016.5 |
| 20260509113007 | 77 | 192 | 1.0 | 3.0 | 0.00 | 0.00 | 0.00 | 46 | 1016.5 |
| 20260509112409 | 78 | 122 | 1.0 | 2.0 | 0.00 | 0.00 | 0.00 | 45 | 1016.6 |
| 20260509111808 | 77 | 242 | 2.0 | 4.0 | 0.00 | 0.00 | 0.00 | 46 | 1016.6 |
| 20260509111207 | 76 | 242 | 1.0 | 3.0 | 0.00 | 0.00 | 0.00 | 48 | 1016.7 |
| 20260509110607 | 77 | 235 | 4.0 | 5.0 | 0.00 | 0.00 | 0.00 | 48 | 1016.8 |
| 20260509105409 | 77 | 266 | 2.0 | 2.0 | 0.00 | 0.00 | 0.00 | 49 | 1016.8 |
| 20260509104807 | 75 | 249 | 0.0 | 0.0 | 0.00 | 0.00 | 0.00 | 49 | 1016.9 |
| 20260509104207 | 76 | 254 | 3.0 | 4.0 | 0.00 | 0.00 | 0.00 | 48 | 1017.1 |
| 20260509103751 | 75 | 233 | 1.0 | 2.0 | 0.00 | 0.00 | 0.00 | 52 | 1017.1 |
| 20260509103609 | 75 | 233 | 1.0 | 2.0 | 0.00 | 0.00 | 0.00 | 52 | 1017.1 |
| 20260509103006 | 75 | 259 | 2.0 | 4.0 | 0.00 | 0.00 | 0.00 | 51 | 1017.2 |
| 20260509102407 | 74 | 241 | 2.0 | 5.0 | 0.00 | 0.00 | 0.00 | 54 | 1017.2 |
| 20260509101807 | 74 | 230 | 2.0 | 3.0 | 0.00 | 0.00 | 0.00 | 53 | 1017.2 |
| 20260509101206 | 74 | 278 | 2.0 | 4.0 | 0.00 | 0.00 | 0.00 | 53 | 1017.3 |
| 20260509100608 | 74 | 252 | 1.0 | 2.0 | 0.00 | 0.00 | 0.00 | 57 | 1017.3 |
| 20260509094806 | 73 | 224 | 1.0 | 4.0 | 0.00 | 0.00 | 0.00 | 57 | 1017.5 |
| 20260509094207 | 74 | 260 | 4.0 | 6.0 | 0.00 | 0.00 | 0.00 | 57 | 1017.5 |
| 20260509093606 | 75 | 183 | 0.0 | 2.0 | 0.00 | 0.00 | 0.00 | 58 | 1017.5 |
| 20260509093007 | 74 | 97 | 1.0 | 2.0 | 0.00 | 0.00 | 0.00 | 58 | 1017.5 |
| 20260509092409 | 74 | 236 | 3.0 | 6.0 | 0.00 | 0.00 | 0.00 | 59 | 1017.6 |
| 20260509091810 | 72 | 249 | 2.0 | 3.0 | 0.00 | 0.00 | 0.00 | 60 | 1017.5 |